Location: Chavannes
(47.1090°N, 0.2226°W)
Time: 15:35:39
(UTC+00:00)

Cosmos 2278 Rocket - Pass Details

Date: 16 October 2021
Orbit: 841 x 845 km, 71.0° (Epoch: 07 December)

Event Time Altitude Azimuth Distance (km) Brightness Sun altitude
Rises 19:40:00 0° 339° (NNW) 3,417 5.8 -25.9°
Reaches altitude 10° 19:44:10 10° 8° (N) 2,477 4.7 -26.6°
Enters shadow 19:45:42 12° 24° (NNE) 2,322 4.4 -26.8°
